Regional Weather Roundup
Issued by NWS Goodland, KS

Home | Current Version | Previous Version | Graphics & Text | Print | Product List | Glossary On
Versions: 1 2 3 4 5 6 7 8 9 10 11 12 13 14 15 16 17 18 19 20 21 22 23 24 25 26 27 28 29 30 31 32 33 34 35 36 37 38 39 40 41 42 43 44 45 46 47 48 49 50
000
ASUS43 KGLD 301208
RWRGLD

GOODLAND FORECAST AREA HOURLY WEATHER ROUNDUP
NATIONAL WEATHER SERVICE GOODLAND KS
600 AM MDT TUE JUN 30 2015

...OFFICIAL OBSERVATIONS...

CITY           SKY/WX    TMP DP  RH WIND       PRES   REMARKS
GOODLAND KS    CLEAR     64  54  69 W6        30.07S
HILL CITY KS   CLEAR     65  55  70 W5        30.01R
IMPERIAL NEB   PTCLDY    62  57  83 W3        30.04R
MCCOOK NEB     CLEAR     62  57  83 SW3       30.00S
AKRON CO       PTCLDY    65  53  65 SW13      30.13R
BURLINGTON CO  CLEAR     60  52  74 W9        30.11F
LIMON CO       CLEAR     53  52  96 N5        30.20S
$$

...UNOFFICIAL OBSERVATIONS...

CITY           SKY/WX    TMP DP  RH WIND       PRES   REMARKS
COLBY KS       CLEAR     63  61  94 W8        30.06S
GOVE KS          N/A     60  32  34 MISG        N/A
NORTON KS      CLEAR     64  54  68 SW9       30.00
SHARON SPRINGS   N/A     61  54  78 W6          N/A
KIT CARSON CO    N/A     56  49  78 MISG        N/A
$$



USA.gov is the U.S. government's official web portal to all federal, state and local government web resources and services.